This is the latest recevied weather packets stored in our database for station/object N5TDX. If no packets are shown the sender has not sent any weather packets the latest 10 day(s).
| Time | Temp. | Humidity | Pressure | Rain* | Wind** | Luminosity | Snow |
|---|---|---|---|---|---|---|---|
| 1777841683 | 28.33° C | 27% | 1014.3 hPa | 0 mm | - | - | - |
| 1777841379 | 28.33° C | 27% | 1014.6 hPa | 0 mm | - | - | - |
| 1777841076 | 28.33° C | 28% | 1014.7 hPa | 0 mm | - | - | - |
| 1777840773 | 28.33° C | 28% | 1014.6 hPa | 0 mm | - | - | - |
| 1777840471 | 28.33° C | 26% | 1014.7 hPa | 0 mm | - | - | - |
| 1777840167 | 28.33° C | 27% | 1014.9 hPa | 0 mm | - | - | - |
| 1777839866 | 28.33° C | 27% | 1015 hPa | 0 mm | - | - | - |
| 1777839564 | 27.78° C | 27% | 1015.3 hPa | 0 mm | - | - | - |
| 1777839261 | 28.33° C | 27% | 1015.1 hPa | 0 mm | - | - | - |
| 1777838958 | 28.89° C | 27% | 1015.2 hPa | 0 mm | - | - | - |
| 1777838654 | 28.89° C | 25% | 1015 hPa | 0 mm | - | - | - |
| 1777838351 | 28.33° C | 26% | 1015.1 hPa | 0 mm | - | - | - |
| 1777838048 | 28.89° C | 28% | 1015.2 hPa | 0 mm | - | - | - |
| 1777837745 | 28.33° C | 28% | 1015.4 hPa | 0 mm | - | - | - |
| 1777837441 | 28.33° C | 27% | 1015.4 hPa | 0 mm | - | - | - |
| 1777837138 | 28.89° C | 26% | 1015.8 hPa | 0 mm | - | - | - |
| 1777836833 | 27.78° C | 28% | 1015.8 hPa | 0 mm | - | - | - |
| 1777836529 | 28.33° C | 26% | 1015.9 hPa | 0 mm | - | - | - |
| 1777836225 | 28.89° C | 24% | 1015.9 hPa | 0 mm | - | - | - |
| 1777835921 | 28.89° C | 26% | 1016.1 hPa | 0 mm | - | - | - |
| 1777835619 | 28.33° C | 28% | 1016.1 hPa | 0 mm | - | - | - |
| 1777835315 | 28.33° C | 30% | 1016.2 hPa | 0 mm | - | - | - |
| 1777835012 | 27.78° C | 30% | 1016.1 hPa | 0 mm | - | - | - |
| 1777834709 | 27.78° C | 30% | 1016.5 hPa | 0 mm | - | - | - |
| 1777834405 | 28.33° C | 30% | 1016.4 hPa | 0 mm | - | - | - |
* Rain latest hour (hover to see other rain measurements)
** Current wind speed in m/s (hover to see current wind gust speed)